Weather History for McMinnville, OR

Change the Weather History Date:

Saturday, March 22, 2014

  Actual Average Record
Temperature  
Mean Temperature 46 °F 48 °F  
Max Temperature 63 °F 57 °F 79 °F (1915)
Min Temperature 28 °F 38 °F 22 °F (1898)
Degree Days  
Heating Degree Days 19 18  
Month to date heating degree days 365 420  
Since 1 July heating degree days 3790 3799  
Cooling Degree Days 0 0  
Month to date cooling degree days 0 0  
Year to date cooling degree days 0 0  
Moisture  
Dew Point 31 °F    
Average Humidity 59    
Maximum Humidity 100    
Minimum Humidity 17    
Precipitation  
Precipitation 0.00 in 0.13 in 1.38 in (1998)
Month to date precipitation 3.96 2.95  
Year to date precipitation 12.23 13.49  
Sea Level Pressure  
Sea Level Pressure 30.26 in    
Wind  
Wind Speed 3 mph (NW)    
Max Wind Speed 6 mph    
Max Gust Speed -    
Visibility 10 miles    
Events      
T = Trace of Precipitation, MM = Missing Value Source: NWS Daily Summary

Daily Weather History Graph

Daily Weather History Graph

Search for Another Location

Airport:

Trip Planner

Search our weather history database for the weather conditions in past years. The results will help you decide how hot, cold, wet, or windy it might be!

Date:

Astronomy

Mar. 22, 2014 Rise Set
Actual Time 7:11 AM PDT 7:27 PM PDT
Civil Twilight 6:42 AM PDT 7:57 PM PDT
Nautical Twilight 6:07 AM PDT 8:31 PM PDT
Astronomical Twilight 5:32 AM PDT 9:07 PM PDT
Moon 1:05 AM PDT (3/22) 10:46 AM PDT (3/22)
Length of Visible Light 13h 15m
Length of Day
12h 16m
Waning Gibbous, 64% of the Moon is Illuminated
Mar 22
Waning Gibbous
Mar 23
Last Quarter
Mar 30
New
Apr 7
First Quarter
Apr 15
Full

Hourly Weather History & Observations

Time (PDT) Temp. Windchill Dew Point Humidity Pressure Visibility Wind Dir Wind Speed Gust Speed Precip Events Conditions
12:53 AM 39.9 °F 37.8 °F 30.0 °F 68% 30.28 in 10.0 mi NNE 3.5 mph - N/A   Clear
1:53 AM 37.0 °F 34.5 °F 30.0 °F 76% 30.28 in 10.0 mi NNW 3.5 mph - N/A   Clear
2:53 AM 33.1 °F 30.0 °F 28.9 °F 85% 30.28 in 10.0 mi WNW 3.5 mph - N/A   Clear
3:53 AM 33.1 °F 30.0 °F 28.9 °F 85% 30.28 in 10.0 mi NNW 3.5 mph - N/A   Clear
4:53 AM 30.0 °F 26.5 °F 28.0 °F 92% 30.29 in 10.0 mi NW 3.5 mph - N/A   Clear
5:53 AM 33.1 °F 28.7 °F 28.9 °F 85% 30.29 in 10.0 mi NNW 4.6 mph - N/A   Clear
6:53 AM 28.9 °F 25.2 °F 28.0 °F 96% 30.30 in 10.0 mi WNW 3.5 mph - N/A   Clear
7:53 AM 30.0 °F - 28.9 °F 96% 30.31 in 10.0 mi Calm Calm - N/A   Clear
8:53 AM 37.0 °F - 34.0 °F 89% 30.31 in 10.0 mi Calm Calm - N/A   Clear
9:53 AM 44.1 °F 41.5 °F 34.0 °F 68% 30.31 in 10.0 mi NNW 4.6 mph - N/A   Clear
10:53 AM 48.9 °F - 34.0 °F 56% 30.30 in 10.0 mi NNW 4.6 mph - N/A   Clear
11:53 AM 52.0 °F - 34.0 °F 50% 30.29 in 10.0 mi Calm Calm - N/A   Clear
12:53 PM 55.9 °F - 30.9 °F 39% 30.28 in 10.0 mi Variable 3.5 mph - N/A   Clear
1:53 PM 57.9 °F - 28.9 °F 33% 30.27 in 10.0 mi North - - N/A   Clear
2:53 PM 61.0 °F - 27.0 °F 27% 30.24 in 10.0 mi NNE 3.5 mph - N/A   Clear
3:53 PM 63.0 °F - 18.0 °F 18% 30.23 in 10.0 mi NE 5.8 mph - N/A   Clear
4:53 PM 62.1 °F - 23.0 °F 22% 30.21 in 10.0 mi Calm Calm - N/A   Clear
5:53 PM 62.1 °F - 28.9 °F 29% 30.20 in 10.0 mi Calm Calm - N/A   Clear
6:53 PM 60.1 °F - 28.9 °F 31% 30.20 in 10.0 mi Calm Calm - N/A   Clear
7:53 PM 50.0 °F - 39.9 °F 68% 30.20 in 10.0 mi SSW 6.9 mph - N/A   Clear
8:53 PM 51.1 °F - 36.0 °F 56% 30.22 in 10.0 mi NW 6.9 mph - N/A   Clear
9:53 PM 46.9 °F - 36.0 °F 66% 30.23 in 10.0 mi WNW 5.8 mph - N/A   Clear
10:53 PM 45.0 °F 41.2 °F 36.0 °F 71% 30.24 in 10.0 mi WNW 6.9 mph - N/A   Clear
11:53 PM 45.0 °F 42.6 °F 35.1 °F 68% 30.25 in 10.0 mi West 4.6 mph - N/A   Clear